ANZ029M NZAA-NZNR

Flight info

Callsign ANZ029M
Flight time 0h 43m
Altitude 16000
Route LAKES H211 HN Y550 GENDA H211 NR
Aircraft AT76/M-SDFGIRY/S

Departure

Time 2026-04-16 03:57
Airport Auckland International Airport (NZAA)

Arrival

Time 2026-04-16 04:40
Airport Hawke's Bay Airport (NZNR)
Time Latitude Longitude Altitude Speed Heading
2026-04-16 03:38 -37.00643 174.79392 22 ft 0 kts
2026-04-16 03:53 -37.00645 174.79414 22 ft 4 kts 128°
2026-04-16 03:53 -37.00674 174.79462 26 ft 9 kts 124°
2026-04-16 03:53 -37.00665 174.79559 22 ft 15 kts 70°
2026-04-16 03:54 -37.00628 174.79696 22 ft 20 kts 72°
2026-04-16 03:54 -37.00586 174.79844 22 ft 14 kts 70°
2026-04-16 03:54 -37.00590 174.79961 23 ft 11 kts 149°
2026-04-16 03:54 -37.00644 174.79997 22 ft 8 kts 139°
2026-04-16 03:55 -37.00686 174.80057 23 ft 10 kts 131°
2026-04-16 03:55 -37.00708 174.80089 25 ft 0 kts 130°
2026-04-16 03:55 -37.00712 174.80095 25 ft 3 kts 130°
2026-04-16 03:55 -37.00737 174.80129 23 ft 7 kts 136°
2026-04-16 03:56 -37.00776 174.80142 22 ft 3 kts 192°
2026-04-16 03:56 -37.00796 174.80102 22 ft 13 kts 252°
2026-04-16 03:56 -37.00884 174.79785 23 ft 67 kts 250°
2026-04-16 03:56 -37.01087 174.79057 23 ft 111 kts 249°
2026-04-16 03:57 -37.01366 174.78045 301 ft 127 kts 248°
2026-04-16 03:57 -37.01652 174.76945 738 ft 138 kts 250°
2026-04-16 03:57 -37.01959 174.75829 1412 ft 136 kts 245°
2026-04-16 03:57 -37.02741 174.75210 1968 ft 148 kts 186°
2026-04-16 03:58 -37.03779 174.75485 2493 ft 160 kts 166°
2026-04-16 03:58 -37.04571 174.76562 3073 ft 186 kts 116°
2026-04-16 03:58 -37.04517 174.78214 3653 ft 200 kts 68°
2026-04-16 03:58 -37.03961 174.79879 4014 ft 214 kts 87°
2026-04-16 03:59 -37.03794 174.81706 4578 ft 214 kts 86°
2026-04-16 03:59 -37.03609 174.83495 5098 ft 206 kts 91°
2026-04-16 03:59 -37.02914 174.85093 5481 ft 206 kts 59°
2026-04-16 03:59 -37.02616 174.86740 6268 ft 186 kts 108°
2026-04-16 04:00 -37.03096 174.88255 6683 ft 198 kts 126°
2026-04-16 04:00 -37.03621 174.89900 7146 ft 206 kts 112°
2026-04-16 04:00 -37.04272 174.91414 7689 ft 190 kts 149°
2026-04-16 04:00 -37.05390 174.91958 8246 ft 163 kts 196°
2026-04-16 04:01 -37.06313 174.91357 8821 ft 149 kts 227°
2026-04-16 04:01 -37.07118 174.90521 9399 ft 152 kts 224°
2026-04-16 04:01 -37.08040 174.89871 9968 ft 165 kts 196°
2026-04-16 04:01 -37.09203 174.90367 10516 ft 188 kts 156°
2026-04-16 04:02 -37.10258 174.91287 11033 ft 187 kts 159°
2026-04-16 04:02 -37.11343 174.92170 11567 ft 185 kts 162°
2026-04-16 04:02 -37.12443 174.92966 12129 ft 181 kts 166°
2026-04-16 04:02 -37.13578 174.93670 12544 ft 186 kts 169°
2026-04-16 04:03 -37.14796 174.94304 12889 ft 194 kts 172°
2026-04-16 04:03 -37.16091 174.94917 13282 ft 203 kts 173°
2026-04-16 04:03 -37.17451 174.95536 13665 ft 213 kts 172°
2026-04-16 04:03 -37.18864 174.96191 14002 ft 222 kts 172°
2026-04-16 04:04 -37.20330 174.96893 14340 ft 229 kts 171°
2026-04-16 04:04 -37.21834 174.97620 14680 ft 235 kts 171°
2026-04-16 04:04 -37.23379 174.98367 15022 ft 240 kts 170°
2026-04-16 04:04 -37.24952 174.99129 15359 ft 244 kts 170°
2026-04-16 04:05 -37.26548 174.99902 15701 ft 247 kts 170°
2026-04-16 04:05 -37.28188 175.00691 15832 ft 259 kts 169°
2026-04-16 04:05 -37.29913 175.01526 15881 ft 272 kts 169°
2026-04-16 04:05 -37.31713 175.02398 15893 ft 282 kts 169°
2026-04-16 04:06 -37.33554 175.03292 15901 ft 285 kts 168°
2026-04-16 04:06 -37.35405 175.04194 15906 ft 286 kts 169°
2026-04-16 04:06 -37.37268 175.05096 15906 ft 287 kts 169°
2026-04-16 04:06 -37.39138 175.06003 15906 ft 288 kts 169°
2026-04-16 04:07 -37.41012 175.06909 15907 ft 289 kts 169°
2026-04-16 04:07 -37.44775 175.08713 15906 ft 284 kts 173°
2026-04-16 04:07 -37.46644 175.08877 15908 ft 262 kts 196°
2026-04-16 04:08 -37.48496 175.09071 15910 ft 284 kts 170°
2026-04-16 04:08 -37.50218 175.10451 15907 ft 301 kts 149°
2026-04-16 04:08 -37.51788 175.12228 15906 ft 303 kts 147°
2026-04-16 04:08 -37.53414 175.13899 15901 ft 300 kts 154°
2026-04-16 04:09 -37.55161 175.15289 15901 ft 295 kts 161°
2026-04-16 04:09 -37.56987 175.16439 15900 ft 293 kts 165°
2026-04-16 04:09 -37.58837 175.17522 15900 ft 294 kts 165°
2026-04-16 04:09 -37.60697 175.18614 15907 ft 295 kts 165°
2026-04-16 04:10 -37.62531 175.19727 15892 ft 296 kts 164°
2026-04-16 04:10 -37.64404 175.20905 15895 ft 298 kts 163°
2026-04-16 04:10 -37.66223 175.22078 15891 ft 298 kts 163°
2026-04-16 04:10 -37.68066 175.23269 15890 ft 297 kts 163°
2026-04-16 04:11 -37.69910 175.24429 15895 ft 297 kts 163°
2026-04-16 04:11 -37.71760 175.25591 15893 ft 297 kts 163°
2026-04-16 04:11 -37.73610 175.26752 15889 ft 297 kts 163°
2026-04-16 04:11 -37.75456 175.27911 15888 ft 297 kts 163°
2026-04-16 04:12 -37.77305 175.29072 15892 ft 297 kts 163°
2026-04-16 04:12 -37.79150 175.30232 15889 ft 297 kts 163°
2026-04-16 04:12 -37.81001 175.31394 15885 ft 297 kts 163°
2026-04-16 04:12 -37.82850 175.32556 15887 ft 297 kts 163°
2026-04-16 04:13 -37.84693 175.33716 15885 ft 296 kts 164°
2026-04-16 04:13 -37.86551 175.34806 15885 ft 293 kts 166°
2026-04-16 04:13 -37.88423 175.35828 15885 ft 293 kts 167°
2026-04-16 04:13 -37.90296 175.36851 15888 ft 294 kts 167°
2026-04-16 04:14 -37.92166 175.37892 15884 ft 294 kts 167°
2026-04-16 04:14 -37.94037 175.38936 15881 ft 294 kts 167°
2026-04-16 04:14 -37.95903 175.39977 15882 ft 294 kts 167°
2026-04-16 04:14 -37.97774 175.41020 15884 ft 294 kts 167°
2026-04-16 04:15 -37.99647 175.42062 15879 ft 294 kts 167°
2026-04-16 04:15 -38.01520 175.43107 15880 ft 294 kts 167°
2026-04-16 04:15 -38.03393 175.44153 15880 ft 294 kts 167°
2026-04-16 04:15 -38.05267 175.45201 15881 ft 294 kts 167°
2026-04-16 04:16 -38.07141 175.46249 15879 ft 294 kts 167°
2026-04-16 04:16 -38.09012 175.47295 15880 ft 294 kts 167°
2026-04-16 04:16 -38.10893 175.48348 15873 ft 297 kts 166°
2026-04-16 04:16 -38.12807 175.49414 15873 ft 303 kts 166°
2026-04-16 04:17 -38.14751 175.50502 15872 ft 307 kts 166°
2026-04-16 04:17 -38.16713 175.51605 15874 ft 310 kts 166°
2026-04-16 04:17 -38.18696 175.52719 15871 ft 313 kts 166°
2026-04-16 04:17 -38.20689 175.53843 15868 ft 314 kts 166°
2026-04-16 04:18 -38.22694 175.54967 15871 ft 315 kts 166°
2026-04-16 04:18 -38.24706 175.56096 15868 ft 316 kts 166°
2026-04-16 04:18 -38.26695 175.57213 15867 ft 317 kts 166°
2026-04-16 04:18 -38.28740 175.58365 15862 ft 318 kts 166°
2026-04-16 04:19 -38.30738 175.59491 15858 ft 318 kts 166°
2026-04-16 04:19 -38.32762 175.60630 15862 ft 318 kts 166°
2026-04-16 04:19 -38.34787 175.61772 15856 ft 318 kts 166°
2026-04-16 04:19 -38.36810 175.62913 15856 ft 318 kts 166°
2026-04-16 04:20 -38.38830 175.64054 15861 ft 318 kts 166°
2026-04-16 04:20 -38.40854 175.65196 15860 ft 318 kts 166°
2026-04-16 04:20 -38.42878 175.66341 15856 ft 318 kts 166°
2026-04-16 04:20 -38.44906 175.67485 15857 ft 319 kts 166°
2026-04-16 04:21 -38.46934 175.68632 15847 ft 318 kts 166°
2026-04-16 04:21 -38.48956 175.69777 15850 ft 318 kts 166°
2026-04-16 04:21 -38.50983 175.70925 15850 ft 318 kts 166°
2026-04-16 04:21 -38.53006 175.72072 15854 ft 319 kts 166°
2026-04-16 04:22 -38.55035 175.73222 15852 ft 318 kts 166°
2026-04-16 04:22 -38.57056 175.74369 15850 ft 318 kts 166°
2026-04-16 04:22 -38.59084 175.75520 15841 ft 319 kts 166°
2026-04-16 04:22 -38.61108 175.76671 15839 ft 319 kts 166°
2026-04-16 04:23 -38.63135 175.77821 15840 ft 319 kts 166°
2026-04-16 04:23 -38.65164 175.78976 15850 ft 319 kts 166°
2026-04-16 04:23 -38.67194 175.80129 15841 ft 320 kts 166°
2026-04-16 04:23 -38.69225 175.81289 15830 ft 320 kts 166°
2026-04-16 04:24 -38.71257 175.82443 15830 ft 319 kts 166°
2026-04-16 04:24 -38.73287 175.83603 15828 ft 319 kts 166°
2026-04-16 04:24 -38.75315 175.84760 15830 ft 319 kts 166°
2026-04-16 04:24 -38.77341 175.85917 15828 ft 319 kts 166°
2026-04-16 04:25 -38.79367 175.87073 15830 ft 318 kts 166°
2026-04-16 04:25 -38.80707 175.87840 15829 ft 318 kts 166°
2026-04-16 04:25 -38.83405 175.89417 15819 ft 321 kts 161°
2026-04-16 04:25 -38.84616 175.90567 15822 ft 333 kts 146°
2026-04-16 04:26 -38.86582 175.93737 15824 ft 345 kts 130°
2026-04-16 04:26 -38.87416 175.95487 15822 ft 347 kts 128°
2026-04-16 04:26 -38.88650 175.98147 15815 ft 347 kts 128°
2026-04-16 04:26 -38.89916 176.00771 15830 ft 346 kts 130°
2026-04-16 04:27 -38.91243 176.03357 15821 ft 347 kts 131°
2026-04-16 04:27 -38.93010 176.06781 15813 ft 348 kts 131°
2026-04-16 04:27 -38.94334 176.09385 15812 ft 348 kts 130°
2026-04-16 04:27 -38.95656 176.11983 15808 ft 348 kts 130°
2026-04-16 04:28 -38.96552 176.13743 15802 ft 348 kts 131°
2026-04-16 04:28 -38.97872 176.16338 15803 ft 347 kts 130°
2026-04-16 04:28 -38.99193 176.18940 15802 ft 347 kts 131°
2026-04-16 04:28 -39.00518 176.21540 15811 ft 348 kts 130°
2026-04-16 04:29 -39.01841 176.24152 15799 ft 348 kts 130°
2026-04-16 04:29 -39.03165 176.26757 15788 ft 347 kts 130°
2026-04-16 04:29 -39.04479 176.29351 15796 ft 346 kts 130°
2026-04-16 04:29 -39.05792 176.31946 15792 ft 342 kts 130°
2026-04-16 04:30 -39.07043 176.34417 15410 ft 314 kts 131°
2026-04-16 04:30 -39.08192 176.36680 14932 ft 291 kts 131°
2026-04-16 04:30 -39.09247 176.38770 14476 ft 275 kts 132°
2026-04-16 04:30 -39.10267 176.40777 13987 ft 262 kts 132°
2026-04-16 04:31 -39.11236 176.42696 13529 ft 250 kts 131°
2026-04-16 04:31 -39.12165 176.44550 13072 ft 243 kts 132°
2026-04-16 04:31 -39.13113 176.46417 12673 ft 254 kts 131°
2026-04-16 04:31 -39.14091 176.48358 12325 ft 262 kts 131°
2026-04-16 04:32 -39.15097 176.50362 11953 ft 270 kts 131°
2026-04-16 04:32 -39.16121 176.52408 11523 ft 274 kts 130°
2026-04-16 04:32 -39.17153 176.54475 11222 ft 272 kts 130°
2026-04-16 04:32 -39.18179 176.56477 11075 ft 263 kts 133°
2026-04-16 04:33 -39.19281 176.58342 11002 ft 260 kts 137°
2026-04-16 04:33 -39.20425 176.60135 10973 ft 258 kts 138°
2026-04-16 04:33 -39.21560 176.61914 10903 ft 259 kts 137°
2026-04-16 04:33 -39.22735 176.63762 10503 ft 274 kts 136°
2026-04-16 04:34 -39.23927 176.65702 10011 ft 270 kts 135°
2026-04-16 04:34 -39.25054 176.67568 9379 ft 258 kts 135°
2026-04-16 04:34 -39.26133 176.69365 8743 ft 250 kts 134°
2026-04-16 04:34 -39.27178 176.71118 8187 ft 241 kts 134°
2026-04-16 04:35 -39.28177 176.72805 7661 ft 233 kts 134°
2026-04-16 04:35 -39.29149 176.74436 7172 ft 226 kts 134°
2026-04-16 04:35 -39.30108 176.76022 6682 ft 222 kts 135°
2026-04-16 04:35 -39.31055 176.77583 6190 ft 220 kts 135°
2026-04-16 04:36 -39.31988 176.79128 5678 ft 215 kts 133°
2026-04-16 04:36 -39.32536 176.80902 5248 ft 211 kts 102°
2026-04-16 04:36 -39.32690 176.82723 5128 ft 197 kts 96°
2026-04-16 04:36 -39.32770 176.84453 4976 ft 189 kts 95°
2026-04-16 04:37 -39.33174 176.85991 4662 ft 179 kts 139°
2026-04-16 04:37 -39.34168 176.86815 4292 ft 169 kts 167°
2026-04-16 04:37 -39.35316 176.87282 3744 ft 174 kts 175°
2026-04-16 04:37 -39.36472 176.87544 3222 ft 164 kts 182°
2026-04-16 04:38 -39.37582 176.87651 2753 ft 157 kts 187°
2026-04-16 04:38 -39.38657 176.87653 2397 ft 153 kts 190°
2026-04-16 04:38 -39.39702 176.87587 2096 ft 148 kts 192°
2026-04-16 04:38 -39.40717 176.87456 1686 ft 146 kts 194°
2026-04-16 04:39 -39.41706 176.87339 1348 ft 138 kts 193°
2026-04-16 04:39 -39.42637 176.87260 955 ft 130 kts 194°
2026-04-16 04:39 -39.43507 176.87128 676 ft 124 kts 192°
2026-04-16 04:39 -39.44345 176.87029 399 ft 118 kts 191°
2026-04-16 04:40 -39.45138 176.86932 248 ft 115 kts 195°
2026-04-16 04:40 -39.45932 176.86842 109 ft 117 kts 194°
2026-04-16 04:40 -39.46691 176.86752 36 ft 97 kts 191°
2026-04-16 04:40 -39.47202 176.86693 34 ft 44 kts 181°
2026-04-16 04:41 -39.47347 176.86666 35 ft 11 kts 209°
2026-04-16 04:41 -39.47361 176.86668 35 ft 4 kts 96°
2026-04-16 04:41 -39.47347 176.86681 35 ft 3 kts
2026-04-16 04:41 -39.47307 176.86685 35 ft 8 kts
2026-04-16 04:42 -39.47241 176.86689 34 ft 11 kts
2026-04-16 04:42 -39.47162 176.86695 34 ft 12 kts
2026-04-16 04:42 -39.47074 176.86704 35 ft 13 kts
2026-04-16 04:42 -39.46980 176.86717 35 ft 14 kts
2026-04-16 04:43 -39.46881 176.86726 35 ft 14 kts
2026-04-16 04:43 -39.46779 176.86741 36 ft 15 kts
2026-04-16 04:43 -39.46677 176.86757 36 ft 15 kts 22°
2026-04-16 04:43 -39.46664 176.86864 36 ft 15 kts 95°
2026-04-16 04:44 -39.46674 176.87017 37 ft 9 kts 91°
2026-04-16 04:44 -39.46649 176.87098 37 ft 11 kts 38°
2026-04-16 04:44 -39.46663 176.87140 37 ft 8 kts 141°
2026-04-16 04:44 -39.46690 176.87135 37 ft 3 kts 204°
2026-04-16 04:45 -39.46692 176.87134 37 ft 0 kts 204°